CST,Max TemperatureF,Mean TemperatureF,Min TemperatureF,Max Dew PointF,MeanDew PointF,Min DewpointF,Max Humidity, Mean Humidity, Min Humidity, Max Sea Level PressureIn, Mean Sea Level PressureIn, Min Sea Level PressureIn, Max VisibilityMiles, Mean VisibilityMiles, Min VisibilityMiles, Max Wind SpeedMPH, Mean Wind SpeedMPH, Max Gust SpeedMPH,PrecipitationIn, CloudCover, Events, WindDirDegrees
2013-12-1,41,32,24,28,27,23,93,76,57,30.14,30.06,29.91,10,9,5,8,5,,0.00,5,Snow,4
2013-12-2,51,42,33,39,33,28,93,77,58,29.90,29.69,29.55,10,8,5,17,7,25,0.00,6,Rain,137
2013-12-3,46,42,37,43,39,36,100,94,81,29.64,29.58,29.52,6,2,0,12,7,,0.00,7,Fog-Rain,62
2013-12-4,41,30,19,39,31,12,100,91,74,29.90,29.64,29.49,10,4,0,25,7,37,0.00,8,Fog,288
2013-12-5,19,14,10,14,5,0,80,63,53,30.38,30.19,29.91,10,10,10,25,18,34,0.00,4,Rain-Snow,302
2013-12-6,12,8,5,0,-3,-6,72,60,48,30.65,30.49,30.36,10,10,10,17,12,20,0.00,5,,325
2013-12-7,14,6,-2,0,-5,-9,72,59,45,30.76,30.64,30.49,10,10,10,13,7,,0.00,2,Snow,17
2013-12-8,19,16,12,16,10,0,93,76,53,30.48,30.16,30.00,10,6,1,14,9,21,0.00,7,Rain-Snow,100
2013-12-9,15,8,0,10,-4,-9,86,66,48,30.29,30.20,30.06,10,10,10,18,11,24,0.00,1,Snow,264
2013-12-10,23,14,5,12,6,-6,73,59,46,30.22,30.14,30.00,10,10,10,25,14,32,0.00,4,Snow,245
2013-12-11,24,12,1,18,-2,-9,86,63,44,30.61,30.49,30.18,10,9,3,24,9,30,0.00,3,Snow,308
2013-12-12,30,16,3,18,7,-6,80,61,51,30.50,30.31,30.12,10,10,10,17,10,25,0.00,1,,211
2013-12-13,33,26,19,27,21,12,86,78,70,30.11,30.01,29.93,10,9,3,16,8,20,0.00,4,Snow,131
2013-12-14,26,19,12,23,16,9,93,83,73,30.16,30.09,30.00,10,6,2,16,12,22,0.00,7,Rain-Snow,337
2013-12-15,19,14,10,12,7,3,79,69,58,30.13,30.08,30.02,10,10,5,14,8,22,0.00,8,Snow,6
2013-12-16,28,22,15,23,17,10,93,83,74,30.10,30.04,29.97,10,7,3,12,8,12,0.00,7,,219
2013-12-17,37,30,23,27,18,10,86,65,36,30.21,30.15,30.07,10,10,10,30,11,43,0.00,2,,274
2013-12-18,53,36,19,32,23,12,81,58,37,30.17,29.88,29.75,10,10,10,23,10,32,0.00,0,,190
2013-12-19,39,36,32,32,31,28,100,84,70,29.84,29.77,29.72,10,8,2,13,8,17,0.00,4,Rain,49
2013-12-20,30,26,23,30,24,19,100,91,86,29.89,29.83,29.75,10,5,1,15,10,21,0.00,8,Rain,344
2013-12-21,26,24,21,25,21,18,93,87,80,29.88,29.80,29.69,10,6,1,14,8,23,0.00,8,Rain-Snow,357
2013-12-22,26,17,6,25,15,0,93,80,67,30.31,30.00,29.72,10,7,0,22,13,26,0.03,7,Rain-Snow,322
2013-12-23,6,-2,-11,0,-11,-20,78,60,40,30.55,30.46,30.31,10,10,10,21,12,25,0.00,2,,285
2013-12-24,17,0,-18,16,-9,-26,93,62,47,30.55,30.38,30.19,10,9,2,15,8,23,0.00,4,Snow,174
2013-12-25,33,25,17,28,20,12,93,81,64,30.25,30.20,30.15,10,8,3,17,10,25,0.00,6,Snow,262
2013-12-26,39,28,17,25,20,12,80,70,56,30.24,30.16,30.09,10,10,10,16,9,22,0.00,3,Snow,229
2013-12-27,46,32,17,28,23,14,93,67,46,30.25,30.17,30.09,10,10,10,18,9,24,0.00,0,Snow,228
2013-12-28,48,40,32,32,29,27,87,63,50,30.08,29.92,29.80,10,10,10,25,13,33,0.00,0,,213
2013-12-29,30,16,1,27,1,-11,86,63,41,30.31,30.18,29.91,10,10,8,28,19,37,0.00,4,Rain-Snow,327
2013-12-30,17,8,-2,12,-1,-13,86,67,53,30.31,30.22,30.11,10,8,1,12,5,16,0.00,5,Snow,186
2013-12-31,15,10,6,9,5,1,85,76,67,30.31,30.22,30.13,10,10,10,15,8,23,0.00,6,Snow,38